| time (UTC) | temp F | wind direction | speed knots | gust knots | rain 1hr in | rain 24hr in | rain mn in | humidity % | barometer mb |
| 20260504044551 | 65 | 95 | 0.9 | 3.5 | 0.00 | 0.00 | 0.00 | 77 | 1011.4 |
| 20260504043051 | 65 | 86 | 1.7 | 4.3 | 0.00 | 0.00 | 0.00 | 74 | 1011.4 |
| 20260504041549 | 65 | 123 | 0.9 | 3.5 | 0.00 | 0.00 | 0.00 | 77 | 1011.4 |
| 20260504040110 | 65 | 182 | 0.9 | 3.5 | 0.00 | 0.00 | 0.00 | 76 | 1011.4 |
| 20260504034547 | 65 | 139 | 0.9 | 3.5 | 0.00 | 0.00 | 0.00 | 76 | 1011.4 |
| 20260504033045 | 65 | 187 | 0.0 | 1.7 | 0.00 | 0.00 | 0.00 | 76 | 1011.4 |
| 20260504031541 | 65 | 167 | 0.0 | 2.6 | 0.00 | 0.00 | 0.00 | 73 | 1011.7 |
| 20260504030038 | 65 | 165 | 0.9 | 3.5 | 0.00 | 0.00 | 0.00 | 77 | 1011.9 |
| 20260504024534 | 64 | 173 | 1.7 | 5.2 | 0.00 | 0.00 | 0.00 | 77 | 1012.1 |
| 20260504023033 | 64 | 228 | 2.6 | 6.1 | 0.00 | 0.00 | 0.00 | 79 | 1012.3 |
| 20260504021531 | 64 | 206 | 3.5 | 6.1 | 0.00 | 0.00 | 0.00 | 79 | 1012.4 |
| 20260504020029 | 63 | 226 | 3.5 | 7.8 | 0.00 | 0.00 | 0.00 | 80 | 1012.8 |
| 20260504014528 | 63 | 226 | 4.3 | 10.4 | 0.00 | 0.00 | 0.00 | 78 | 1013.0 |
| 20260504013025 | 63 | 209 | 3.5 | 7.8 | 0.00 | 0.00 | 0.00 | 76 | 1013.4 |
| 20260504011524 | 63 | 240 | 3.5 | 9.6 | 0.00 | 0.00 | 0.00 | 78 | 1013.5 |
| 20260504010022 | 63 | 202 | 1.7 | 6.1 | 0.00 | 0.00 | 0.00 | 79 | 1013.6 |
| 20260504004521 | 62 | 238 | 2.6 | 6.1 | 0.00 | 0.00 | 0.00 | 82 | 1013.7 |
| 20260504003014 | 61 | 224 | 2.6 | 6.1 | 0.00 | 0.00 | 0.00 | 88 | 1013.7 |
| 20260504001511 | 61 | 217 | 0.9 | 3.5 | 0.00 | 0.00 | 0.00 | 96 | 1013.8 |
| 20260504000009 | 59 | 247 | 0.0 | 4.3 | 0.00 | 0.00 | 0.00 | 97 | 1013.9 |
| 20260503234509 | 58 | 252 | 0.9 | 3.5 | 0.00 | 0.00 | 0.00 | 98 | 1014.0 |
| 20260503233008 | 58 | 271 | 0.9 | 4.3 | 0.00 | 0.00 | 0.00 | 98 | 1014.2 |
| 20260503231507 | 59 | 245 | 0.9 | 5.2 | 0.00 | 0.00 | 0.00 | 98 | 1014.2 |
| 20260503230006 | 59 | 278 | 0.9 | 5.2 | 0.00 | 0.00 | 0.00 | 99 | 1014.3 |
| 20260503224507 | 59 | 265 | 2.6 | 6.1 | 0.00 | 0.00 | 0.00 | 99 | 1014.2 |
| 20260503223005 | 59 | 266 | 1.7 | 5.2 | 0.00 | 0.00 | 0.00 | 99 | 1013.9 |
| 20260503221504 | 60 | 284 | 1.7 | 4.3 | 0.00 | 0.00 | 0.00 | 99 | 1013.8 |
| 20260503220004 | 59 | 283 | 0.9 | 3.5 | 0.00 | 0.00 | 0.00 | 99 | 1013.7 |
| 20260503214503 | 59 | 272 | 0.9 | 2.6 | 0.00 | 0.00 | 0.00 | 99 | 1013.5 |
| 20260503213002 | 59 | 258 | 0.9 | 3.5 | 0.00 | 0.00 | 0.00 | 99 | 1013.3 |
| 20260503211600 | 0 | 0.0 | 0.0 | 0.00 | 0.00 | 0.00 | 1013.2 | ||
| 20260503210056 | 0 | 0.0 | 0.0 | 0.00 | 0.00 | 0.00 | 1012.8 | ||
| 20260503204552 | 0 | 0.0 | 0.0 | 0.00 | 0.00 | 0.00 | 1012.8 | ||
| 20260503203047 | 0 | 0.0 | 0.0 | 0.00 | 0.00 | 0.00 | 1012.9 | ||
| 20260503201542 | 0 | 0.0 | 0.0 | 0.00 | 0.00 | 0.00 | 1012.7 | ||
| 20260503200038 | 0 | 0.0 | 0.0 | 0.00 | 0.00 | 0.00 | 1012.7 | ||
| 20260503194534 | 0 | 0.0 | 0.0 | 0.00 | 0.00 | 0.00 | 1012.6 | ||
| 20260503193039 | 0 | 0.0 | 0.0 | 0.00 | 0.00 | 0.00 | 1012.6 | ||
| 20260503191526 | 0 | 0.0 | 0.0 | 0.00 | 0.00 | 0.00 | 1012.7 | ||
| 20260503190027 | 0 | 0.0 | 0.0 | 0.00 | 0.00 | 0.00 | 1012.4 | ||
| 20260503184526 | 0 | 0.0 | 0.0 | 0.00 | 0.00 | 0.00 | 1012.3 | ||
| 20260503183019 | 0 | 0.0 | 0.0 | 0.00 | 0.00 | 0.00 | 1012.4 | ||
| 20260503181518 | 60 | 26 | 0.0 | 0.0 | 0.00 | 0.00 | 0.00 | 99 | 1012.5 |
| 20260503180020 | 61 | 38 | 0.0 | 0.0 | 0.00 | 0.00 | 0.00 | 99 | 1012.6 |
| 20260503174519 | 61 | 77 | 0.0 | 0.9 | 0.00 | 0.00 | 0.00 | 99 | 1012.7 |
| 20260503173023 | 61 | 94 | 0.0 | 1.7 | 0.00 | 0.00 | 0.00 | 99 | 1012.6 |
| 20260503171522 | 61 | 89 | 1.7 | 7.0 | 0.00 | 0.00 | 0.00 | 99 | 1012.6 |
| 20260503150106 | 61 | 319 | 0.9 | 1.7 | 0.00 | 0.00 | 0.00 | 98 | 1014.5 |
| 20260503081525 | 75 | 25 | 2.6 | 8.7 | 0.00 | 0.00 | 0.00 | 61 | 1012.0 |
| 20260503071524 | 74 | 354 | 1.7 | 5.2 | 0.00 | 0.00 | 0.00 | 64 | 1012.2 |
| 20260503054512 | 76 | 41 | 0.0 | 4.3 | 0.00 | 0.00 | 0.00 | 62 | 1013.0 |
| 20260503053011 | 76 | 351 | 2.6 | 7.0 | 0.00 | 0.00 | 0.00 | 60 | 1013.1 |